Volver al catálogo

COSMOS 1383

ActivoMilitarPO
NORAD 13301·PAYLOAD·🇷🇺 Russia

Lanzado Jun 29, 1982 desde Plesetsk Cosmodrome

Loading…

Próximos Pases (próximas 24 horas)

TLE

ActualizadoSource: Space-Track

Época: Sep 14, 2026, 09:15 UTC

1 13301U 82066A   26257.38563219  .00000055  00000-0  46885-4 0  9994
2 13301  82.9318 308.4835 0027481  14.5557 356.4625 13.68912632207912

Sigue COSMOS 1383 en tiempo real con AllMySat

Download on the App Store